www.pogodaiklimat.ru

Погода и климат >> Архив погоды >> Украина >> Харьков


АРХИВ ПОГОДЫ в Харькове

Время (UTC), дата Ветер
(напр.,м/с)
 
Видим.   Явления Облачность Т
(С)
Тd
(С)
f
(%)
Тe
(С)
Тes
(С)
Комфортность P
(гПа)
Po
(гПа)
Тmin
(С)
Tmax
(С)
R
(мм)
R24
(мм)
S
(см)
03 16.04 Ю 2 10 км 3/0
[Ac trans]
+8.2 +1.9 64 +7 +7 по сезону 1022.2 1003.2
06 16.04 ЮЗ 2 10 км 4/0
[Ci fib]
+12.9 +3.8 54 +12 +18 тепло 1021.6 1003.0 +7.0 0.0
09 16.04 Ю 1 10 км 4/0
[Ci fib]
+18.2 +4.9 41 +19 +34 опасность
простуды
1021.1 1002.8
12 16.04 СЗ 1 10 км 4/3 1000 м
[Cu hum Ci fib]
+21.7 +5.5 35 +22 +30 комфорт 1019.5 1001.5
15 16.04 З 3 10 км 8/3 1000 м
[Sc diur, vesp Ci]
+22.0 +3.9 31 +22 +23 комфорт 1018.0 1000.0
18 16.04 Ю 3 10 км 9/0
[Ac trans]
+16.2 +6.7 53 +16 +16 тепло 1019.3 1000.9 +23.1
21 16.04 Ю 3 10 км 5/0
[Ac trans]
+15.1 +6.7 57 +15 +15 тепло 1019.2 1000.8
00 17.04 З 2 10 км 5/0
[Ci fib]
+13.5 +6.9 64 +13 +13 тепло 1019.6 1001.1
03 17.04 З 3 10 км 6/0
[Ci]
+12.1 +6.7 70 +11 +11 тепло 1019.8 1001.2
06 17.04 З 4 10 км 9/0
[Ac trans Ci]
+15.2 +4.5 49 +14 +17 тепло 1020.6 1002.1 +11.8
09 17.04 З 4 10 км 9/0
[Ac trans]
+20.0 +0.6 27 +20 +24 тепло 1020.1 1001.9
12 17.04 З 5 10 км 9/0
[Ac trans]
+20.4 +0.2 26 +20 +23 тепло 1019.8 1001.7
15 17.04 ЮЗ 4 10 км 10/0
[Ac trans Cs]
+19.6 +2.6 32 +20 +20 тепло 1019.0 1000.8
18 17.04 ЮЗ 2 10 км 9/0
[Ac trans]
+16.4 +3.4 42 +17 +17 тепло 1019.4 1001.0 +21.3
21 17.04 Ю 3 10 км 8/0
[Ac trans]
+14.8 +4.2 49 +14 +14 тепло 1019.1 1000.6
00 18.04 Ю 3 10 км 8/0
[Ac trans]
+13.3 +4.1 54 +12 +12 тепло 1018.2 999.7
03 18.04 Ю 3 10 км 9/0
[Ac As]
+12.0 +1.4 48 +11 +11 тепло 1017.2 998.6
06 18.04 ЮЗ 5 10 км {ливн. осадки} 9/4 600 м
[Cb cap Ac und]
+13.2 +3.1 50 +11 +12 тепло 1016.6 998.1 +11.8 0.0
09 18.04 ЮЗ 4 7000 м слабый ливневой дождь 10/10 330 м
[Cb calv]
+10.8 +9.2 90 +8 +8 по сезону 1016.6 997.9
12 18.04 З 4 10 км {ливн. осадки} 9/8 630 м
[Sc Ci fib]
+14.5 +9.7 73 +13 +14 по сезону 1015.6 997.2
15 18.04 З 7 10 км 8/8 1000 м
[Sc]
+17.4 +1.9 35 +16 +17 тепло 1014.7 996.5
18 18.04 З 2 10 км 8/0
[Ac trans]
+13.5 +3.5 51 +13 +13 тепло 1015.1 996.6 +18.0 3
21 18.04 З 4 10 км {ливн. осадки} 3/0
[Ac trans]
+11.0 +3.8 61 +9 +9 тепло 1014.2 995.6
00 19.04 З 6 10 км слабый ливневой дождь 10/10 570 м
[Cb cap]
+9.1 +6.5 84 +5 +5 по сезону 1011.7 993.0
03 19.04 З 5 10 км {ливн. осадки} 10/10 930 м
[Sc]
+9.7 +6.3 79 +7 +7 по сезону 1008.7 990.1
06 19.04 З 7 10 км слабый ливневой дождь 10/10 630 м
[Cb cap]
+10.0 +5.7 75 +6 +6 по сезону 1006.8 988.3 +8.8 0.0
09 19.04 СЗ 7 8000 м слабый ливневой дождь 10/10 400 м
[Cb cap]
+8.8 +6.7 87 +5 +5 прохладно 1005.5 986.9
12 19.04 З 6 10 км слабый ливневой дождь 10/10 600 м
[Cb cap]
+9.1 +6.5 84 +5 +5 очень
холодно
1004.6 986.0
15 19.04 СЗ 6 8000 м слабый ливневой дождь 10/10 330 м
[Cb cap]
+8.6 +7.3 92 +5 +5 холодно 1004.1 985.5
18 19.04 СЗ 7 10 км слабый ливневой дождь 10/10 360 м
[Cb cap]
+8.3 +6.6 89 +4 +4 прохладно 1005.2 986.6 +10.8 2
21 19.04 СЗ 6 10 км {ливн. осадки} 10/10 800 м
[Cb cap]
+8.4 +5.8 84 +4 +4 по сезону 1005.4 986.8
00 20.04 СЗ 7 10 км {ливн. осадки} 10/8 630 м
[Sc Ac und]
+8.8 +5.3 79 +5 +5 по сезону 1005.8 987.2
03 20.04 СЗ 8 10 км 10/10 1230 м
[Sc]
+8.8 +4.3 73 +4 +4 по сезону 1006.7 988.1
06 20.04 С 10 10 км 6/4 1000 м
[Cu hum Ac trans]
+11.3 +3.1 57 +8 +8 по сезону 1008.0 989.5 +8.0 0.5
09 20.04 С 9 10 км 6/6 1000 м
[Cu med, cong]
+14.3 +1.8 43 +12 +13 по сезону 1009.5 991.2
12 20.04 С 9
{18}
10 км 5/5 1000 м
[Cu med, cong]
+16.1 -2.2 28 +14 +15 по сезону 1011.2 992.9
15 20.04 С 9 10 км 6/6 1000 м
[Sc diur, vesp]
+15.4 -2.0 30 +14 +14 тепло 1012.9 994.6
18 20.04 С 4 10 км 3/0
[Ac trans]
+12.4 -0.2 42 +11 +11 по сезону 1015.2 996.6 +17.5
21 20.04 СЗ 2 10 км ясно +9.0 +0.3 54 +8 +8 по сезону 1016.1 997.3
00 21.04 З 3 10 км ясно +6.2 +0.3 66 +3 +3 по сезону 1015.9 996.9
03 21.04 З 3 10 км ясно +5.2 -0.0 69 +2 +2 прохладно 1016.0 996.9
06 21.04 З 2 10 км 8/0
[Ci]
+12.5 +2.1 49 +12 +17 тепло 1014.5 996.0 +4.2
09 21.04 З 7 10 км 8/0
[Ci]
+17.5 +0.7 32 +17 +20 тепло 1011.7 993.5
12 21.04 ЮЗ 8 10 км 3/0
[Ac trans]
+20.4 +1.2 28 +20 +22 тепло 1007.5 989.6
15 21.04 ЮЗ 8 10 км 3/0
[Ac trans]
+20.2 +3.2 32 +20 +20 тепло 1004.5 986.6
18 21.04 ЮЗ 6 10 км 3/0
[Ac trans]
+17.4 +2.7 37 +17 +17 тепло 1002.0 984.0 +20.8
21 21.04 З 9 10 км слабый ливневой дождь 10/5 600 м
[Cb cap Ac und]
+16.3 +7.1 54 +15 +15 тепло 1000.1 982.1
00 22.04 СЗ 10 10 км {ливн. осадки} 3/0
[Ac trans]
+14.6 +1.0 40 +12 +12 тепло 1002.1 983.9
03 22.04 СЗ 7 10 км ясно +10.0 -1.5 45 +7 +7 по сезону 1004.5 986.0
06 22.04 СЗ 7
{18}
10 км 3/0
[Ci fib]
+12.8 +0.8 44 +10 +12 по сезону 1004.7 986.4 +9.6 0.0
09 22.04 З 8 10 км 8/8 1000 м
[Cu med, cong]
+15.6 -0.7 33 +14 +14 тепло 1004.2 986.0
12 22.04 З 8 10 км 8/8 1000 м
[Cu med, cong]
+15.0 -3.4 28 +13 +14 по сезону 1004.2 986.0
15 22.04 СЗ 7 10 км 6/6 600 м
[Cb calv]
+13.6 -2.1 34 +12 +12 по сезону 1005.3 987.0
18 22.04 СЗ 5 10 км 6/3 1000 м
[Sc Ac trans]
+12.2 -3.5 33 +10 +10 по сезону 1007.5 989.1 +16.8
21 22.04 З 2 10 км 8/5 1000 м
[Sc Ac trans]
+8.6 +1.6 61 +7 +7 по сезону 1008.5 989.8

 

Местоположение метеостанции Харьков (Харьковская область, Украина): широта 49.97 долгота 36.13 высота над уровнем моря 155 м.

В архиве по умолчанию представлена погода в Харькове за последнюю неделю. Архивные данные за месяц целиком и за предыдущие месяцы, начиная с января 2011 года, Вы можете получить, выбрав интересующий диапазон дат из раскрывающегося списка и нажав кнопку "Ввод!".


*Определитесь, кто Вы:
робот инопланетянин человек

Внимание! Время в таблицах - всемирное. Для получения местного времени необходимо прибавить поправку, которая в Харькове равна 2 ч.

Смотрите также архив погоды в соседних городах и на ближайших метеорологических станциях:

Погода в Золочеве (Львовская область, Украина) (39 км)
Погода в Боходухове (Харьковская область, Украина) (50 км)
Погода в Слобожанском (Донецкая область, Украина) (50 км)
Погода в Коломаке (Харьковская область, Украина) (66 км)
Погода в Белгороде (Белгородская область, Россия) (80 км)
Погода в Краснограде (Харьковская область, Украина) (82 км)
Погода в Великом Бурлуке (Харьковская область, Украина) (90 км)
Погода в Готне (Белгородская область, Россия) (96 км)
Погода в Купянске (Харьковская область, Украина) (119 км)
Погода в Лозовой (Харьковская область, Украина) (120 км)

Пояснения к столбцам:

Ветер - указаны скорость ветра в м/с - средняя за 10 мин, порывы в срок и между сроками (в фигурных скобках) и направление, откуда дует ветер: С - северный, СВ - северо-восточный, В - восточный, ЮВ - юго-восточный, Ю - южный, ЮЗ - юго-западный, З - западный, СЗ - северо-западный.
Видимость - горизонтальная дальность видимости в метрах или километрах. При видимости от 1 до 10 км при отсутствии осадков обычно наблюдается дымка, при ухудшении видимости до 1 км и менее - туман. В сухую погоду видимость может ухудшаться дымом, пылью или мглою.
Явления - указаны атмосферные явления, наблюдавшиеся в срок или в последний час перед сроком; фигурными скобками обозначены явления, наблюдавшиеся между сроками (за 1-3 часа до срока); квадратными скобками обозначены град или гололедные отложения с указанием их диаметра в мм.
Облачность - указаны через наклонную черту общая и нижняя облачность в баллах и высота нижней границы облаков в метрах; квадратными скобками обозначены формы облаков: Ci - перистые, Cs - перисто-слоистые, Cc - перисто-кучевые, Ac - высококучевые, As - высокослоистые, Sc - слоисто-кучевые, Ns - слоисто-дождевые, Cu - кучевые, Cb - кучево-дождевые. Подробнее классификацию облаков см. в Атласе облаков (PDF).
T - Температура воздуха - температура, измеренная на высоте 2 м над землей.
Td - Температура точки росы - температура, при понижении до которой содержащийся в воздухе водяной пар достигнет насыщения.
f - Относительная влажность воздуха - влажноcть воздуха, измеренная на высоте 2 м над землей.
Te - Эффективная температура - температура, которую ощущает одетый по сезону человек в тени. Характеристика душности погоды. При расчете учитывается влияние влажности воздуха и скорости ветра на теплоощущения человека.
Tes - Эффективная температура на солнце - температура, которую ощущает человек, с поправкой на солнечный нагрев. Характеристика знойности погоды. Зависит от высоты солнца над горизонтом, облачности и скорости ветра. Ночью, в пасмурную погоду, а также при ветре 12 м/с и более поправка равна нулю.
P - Атмосферное давление - приведенное к уровню моря атмосферное давление.
Po - Атмосферное давление - измеренное на уровне метеостанции атмосферное давление.
Tmin - Минимальная температура - минимум температуры воздуха на высоте 2 м над землей.
Tmax - Максимальная температура - максимум температуры воздуха на высоте 2 м над землей.
R - Количество осадков - Количество выпавших осадков за период времени, мм. При наведении курсора мыши на число - период времени, за который выпало указанное количество осадков.
R24 - Количество осадков - Количество выпавших осадков за 24 часа, мм.
S - Снежный покров - Высота снежного покрова, см. При наведении курсора мыши на число - состояние снежного покрова и степень покрытия местности в баллах.